Regional Weather Roundup
Issued by NWS Portland, ME

Home | Current Version | Previous Version | Text Only | Print | Product List | Glossary On
Versions: 1 2 3 4 5 6 7 8 9 10 11 12 13 14 15 16 17 18 19 20 21 22 23 24 25 26 27 28 29 30 31 32 33 34 35 36 37 38 39 40 41 42 43 44 45 46 47 48 49 50
000
ASUS41 KGYX 261305
RWRGYX
WEATHER ROUNDUP FOR MAINE AND NEW HAMPSHIRE
NATIONAL WEATHER SERVICE GRAY ME
900 AM EDT MON JUN 26 2017

MEZ002-005-006-010-012-015-018-020-021-024-026-027-029-261400-
MAINE

CITY           SKY/WX    TMP DP  RH WIND       PRES   REMARKS
PORTLAND       MOSUNNY   68  49  50 W10       29.93R
SANFORD        MOSUNNY   68  49  50 W10G18    29.96R
BAR HARBOR     MOSUNNY   68  54  60 NW6       29.89F
WISCASSET      SUNNY     67  51  56 VRB7      29.93R
ROCKLAND       SUNNY     67  54  63 NW7       29.90R
FRYEBURG       SUNNY     66  51  58 W8        29.94R
LEWISTONAUBURN SUNNY     64  52  64 W12       29.93S
AUGUSTA        SUNNY     64  51  62 W12       29.92R
WATERVILLE     SUNNY     65  52  62 VRB6      29.89R
BANGOR         MOSUNNY   65  52  62 VRB5      29.90R
GREENVILLE       N/A     60  50  69 VRB3      29.87S
MILLINOCKET    MOSUNNY   61  54  77 NW7       29.89R
HOULTON        CLOUDY    59  56  89 W5        29.84F
PRESQUE ISLE   PTSUNNY   61  52  72 W12       29.84S
FRENCHVILLE    CLOUDY    52  38  58 NW15      29.86R
CARIBOU        RAIN      59  52  77 SW3       29.82R
$$

NHZ002-005-008-009-011-012-014-261400-
NEW HAMPSHIRE

CITY           SKY/WX    TMP DP  RH WIND       PRES   REMARKS
PORTSMOUTH     MOSUNNY   68  49  51 NW10      29.94R
ROCHESTER      SUNNY     67  48  50 NW9G20    29.95R
NASHUA         SUNNY     67  50  54 W12       29.98S
MANCHESTER     MOSUNNY   68  45  43 W8        29.96R
CONCORD        SUNNY     67  49  52 W8        29.97R
LACONIA        SUNNY    N/A N/A N/A W10G16    29.97R
PLYMOUTH       FAIR      64  49  56 NW6       29.96S
BERLIN         CLOUDY    60  49  66 CALM      29.94S
WHITEFIELD     SUNNY     62  50  64 SW13G18   29.95S
JAFFREY        SUNNY     64  51  62 NW7       30.00S
KEENE          SUNNY     65  49  56 NW7       29.99S
LEBANON        PTSUNNY   64  49  57 W10       29.97R
MT WASHINGTON  FOG       36  36 100 W40G47      N/A  VSB 0
$$

VTZ005-007-008-261400-
VERMONT

CITY           SKY/WX    TMP DP  RH WIND       PRES   REMARKS
ST JOHNSBURY     N/A     60  53  77 MISG      29.94R
MONTPELIER     PTSUNNY   61  49  64 NW12      30.00R
BURLINGTON     MOSUNNY   66  49  54 W12       29.96S
$$

MAZ007-012-024-CTZ003-RIZ002-NYZ038-NYZ072-261400-
SOUTHERN NEW ENGLAND AND NY

CITY           SKY/WX    TMP DP  RH WIND       PRES   REMARKS
BOSTON         SUNNY     69  50  50 W14       29.98S
WORCESTER      SUNNY     62  51  67 W12       30.01R
NANTUCKET      SUNNY     71  53  52 NW10      30.00R
PROVIDENCE     MOSUNNY   70  52  52 NW12      30.01R
HARTFORD       MOSUNNY   67  53  61 S5        30.02R
ALBANY         MOSUNNY   65  54  67 W8        30.01S
NEW YORK CITY  SUNNY     71  53  52 NW6       30.03S
$$

ANZ081-ANZ082-ANZ150-NHZ014-MEZ023>029-261400-
COASTAL MARINE OBSERVATIONS

STATION/POSITION TIME  TEMP    WIND        PRES    WAVE
                       AIR SEA DIR/SP/G            HT/PER
                 (UTC) (F)     (DEG/KT/KT) (MB)    (FT/S)
MATINICUS ROCK   1200   58     240/  9/ 10 1012.0R
ISLE OF SHOALS   1200   63     260/ 12/ 14 1013.9R
JEFFREYS LEDGE   1236      56                N/A     2/ 8
CASHES LEDGE BUO 1150   64 60              1012.9    3/ 8
GEORGES BANK BUO 1150   55 53              1014.8    4/ 8
$$

.............KEY..............
   WCI - WIND CHILL
   TC  - TEMPERATURE IN CELSIUS
   VSB - VISIBILITY IN MILES
   HX  - HEAT INDEX
   FAIR- INDICATES FEW OR NO CLOUDS BELOW 12,000 FT, WITH NO
         SIGNIFICANT WEATHER AND/OR OBSTRUCTIONS TO VISIBILITY.






USA.gov is the U.S. government's official web portal to all federal, state and local government web resources and services.